AXB54S VOMD-VEBN

Flight info

Callsign AXB54S
Flight time N/A
Altitude 40000
Route MDI J15 ADKAL W42 BIA/N0483F410 Q22 VIRAM W57 SAKRO Q22 HIA Q16 PUPAM P646 BBN
Aircraft A359/H-SDE2E3GHIJ3J4J5LM1ORWXY/LB1D1

Departure

Time 2026-04-24 11:33
Airport Madurai Airport (VOMD)

Arrival

Time N/A
Airport Lal Bahadur Shastri International Airport (VEBN)
Time Latitude Longitude Altitude Speed Heading
2026-04-24 11:10 9.83769 78.08966 448 ft 0 kts 355°
2026-04-24 11:22 9.83762 78.08966 448 ft 3 kts 355°
2026-04-24 11:22 9.83743 78.08968 448 ft 3 kts 355°
2026-04-24 11:22 9.83724 78.08971 447 ft 3 kts 339°
2026-04-24 11:23 9.83706 78.08981 446 ft 3 kts 317°
2026-04-24 11:23 9.83693 78.08997 448 ft 3 kts 295°
2026-04-24 11:23 9.83687 78.09017 447 ft 3 kts 274°
2026-04-24 11:23 9.83686 78.09020 448 ft 0 kts 270°
2026-04-24 11:28 9.83686 78.09019 448 ft 3 kts 270°
2026-04-24 11:28 9.83669 78.08943 447 ft 7 kts 223°
2026-04-24 11:29 9.83623 78.08930 448 ft 8 kts 187°
2026-04-24 11:29 9.83562 78.08916 448 ft 10 kts 177°
2026-04-24 11:29 9.83524 78.08952 447 ft 9 kts 123°
2026-04-24 11:29 9.83479 78.08997 433 ft 9 kts 161°
2026-04-24 11:30 9.83441 78.08964 439 ft 8 kts 257°
2026-04-24 11:30 9.83436 78.08902 446 ft 10 kts 263°
2026-04-24 11:30 9.83428 78.08823 447 ft 13 kts 265°
2026-04-24 11:30 9.83417 78.08675 447 ft 30 kts 265°
2026-04-24 11:31 9.83397 78.08424 450 ft 39 kts 266°
2026-04-24 11:31 9.83368 78.08207 450 ft 13 kts 250°
2026-04-24 11:31 9.83346 78.08152 450 ft 3 kts 277°
2026-04-24 11:31 9.83362 78.08151 450 ft 2 kts 17°
2026-04-24 11:32 9.83377 78.08187 450 ft 11 kts 76°
2026-04-24 11:32 9.83388 78.08298 450 ft 22 kts 85°
2026-04-24 11:32 9.83416 78.08690 447 ft 93 kts 86°
2026-04-24 11:32 9.83479 78.09563 450 ft 156 kts 86°
2026-04-24 11:33 9.83561 78.10763 936 ft 173 kts 86°
2026-04-24 11:33 9.83697 78.11999 1739 ft 179 kts 78°
2026-04-24 11:33 9.84468 78.13076 2148 ft 213 kts 36°
2026-04-24 11:33 9.85974 78.13418 2806 ft 237 kts
2026-04-24 11:34 9.87699 78.13210 3377 ft 259 kts 352°
2026-04-24 11:34 9.89511 78.12894 3865 ft 268 kts 353°
2026-04-24 11:34 9.91371 78.12674 4470 ft 272 kts 358°
2026-04-24 11:34 9.93274 78.12600 5079 ft 274 kts
2026-04-24 11:35 9.95186 78.12653 5741 ft 275 kts
2026-04-24 11:35 9.97104 78.12785 6361 ft 278 kts
2026-04-24 11:35 9.99029 78.12961 6947 ft 278 kts
2026-04-24 11:35 10.00956 78.13152 7539 ft 281 kts
2026-04-24 11:36 10.02908 78.13345 8117 ft 283 kts
2026-04-24 11:36 10.04871 78.13532 8736 ft 284 kts
2026-04-24 11:36 10.06842 78.13714 9377 ft 285 kts
2026-04-24 11:36 10.08827 78.13892 9945 ft 289 kts
2026-04-24 11:37 10.10877 78.14073 10214 ft 303 kts
2026-04-24 11:37 10.13025 78.14262 10423 ft 317 kts
2026-04-24 11:37 10.15272 78.14461 10638 ft 331 kts
2026-04-24 11:37 10.17607 78.14665 10856 ft 343 kts
2026-04-24 11:38 10.20019 78.14878 11138 ft 351 kts
2026-04-24 11:38 10.22441 78.15088 11557 ft 354 kts
2026-04-24 11:38 10.24907 78.15298 11996 ft 357 kts
2026-04-24 11:38 10.27376 78.15509 12432 ft 358 kts
2026-04-24 11:39 10.29853 78.15726 12880 ft 360 kts
2026-04-24 11:39 10.32336 78.15943 13270 ft 363 kts
2026-04-24 11:39 10.34863 78.16162 13704 ft 364 kts
2026-04-24 11:39 10.37393 78.16381 14047 ft 368 kts
2026-04-24 11:40 10.39957 78.16604 14371 ft 371 kts
2026-04-24 11:40 10.42539 78.16829 14707 ft 374 kts
2026-04-24 11:40 10.45142 78.17056 15056 ft 376 kts
2026-04-24 11:40 10.47761 78.17286 15406 ft 379 kts
2026-04-24 11:41 10.50403 78.17517 15729 ft 383 kts
2026-04-24 11:41 10.53063 78.17749 16078 ft 385 kts
2026-04-24 11:41 10.55743 78.17984 16404 ft 388 kts
2026-04-24 11:41 10.58412 78.18217 16737 ft 391 kts
2026-04-24 11:42 10.61130 78.18455 17064 ft 394 kts
2026-04-24 11:42 10.63866 78.18694 17398 ft 396 kts
2026-04-24 11:42 10.66557 78.18929 17724 ft 399 kts
2026-04-24 11:42 10.69230 78.19163 18038 ft 401 kts
2026-04-24 11:43 10.71941 78.19399 18307 ft 404 kts
2026-04-24 11:43 10.74674 78.19638 18594 ft 405 kts
2026-04-24 11:43 10.77469 78.19883 18877 ft 407 kts
2026-04-24 11:43 10.80277 78.20128 19147 ft 410 kts
2026-04-24 11:44 10.83124 78.20377 19430 ft 412 kts
2026-04-24 11:44 10.85982 78.20628 19714 ft 414 kts
2026-04-24 11:44 10.88853 78.20915 19982 ft 416 kts
2026-04-24 11:44 10.91736 78.21246 20261 ft 417 kts
2026-04-24 11:45 10.94594 78.21592 20523 ft 420 kts
2026-04-24 11:45 10.97406 78.21934 20743 ft 421 kts
2026-04-24 11:45 11.00236 78.22272 21162 ft 418 kts
2026-04-24 11:45 11.02994 78.22596 21792 ft 411 kts
2026-04-24 11:46 11.05689 78.22908 22445 ft 403 kts
2026-04-24 11:46 11.08470 78.23229 23151 ft 395 kts
2026-04-24 11:46 11.11037 78.23525 23740 ft 387 kts
2026-04-24 11:46 11.13663 78.23827 24334 ft 379 kts
2026-04-24 11:47 11.16195 78.24120 24940 ft 371 kts
2026-04-24 11:47 11.18716 78.24411 25562 ft 363 kts
2026-04-24 11:47 11.21204 78.24698 26195 ft 355 kts
2026-04-24 11:47 11.23629 78.24978 26841 ft 347 kts
2026-04-24 11:48 11.25999 78.25252 27510 ft 338 kts
2026-04-24 11:48 11.28297 78.25518 28184 ft 327 kts
2026-04-24 11:48 11.30529 78.25765 28804 ft 318 kts
2026-04-24 11:48 11.32714 78.25908 29251 ft 313 kts 358°
2026-04-24 11:49 11.34888 78.25982 29622 ft 312 kts 356°
2026-04-24 11:49 11.37063 78.26032 29920 ft 313 kts 355°
2026-04-24 11:49 11.39212 78.26082 30145 ft 314 kts 356°